This demonstration page uses our WeatherBlox Daily Observations layout. Learn more.

Hourly Observations for September 20, 2018

Temp ( °F °C ) Dew Point ( °F °C ) Humidity (%) Winds ( mph kmh ) Pressure ( in mb ) Visibility ( mi km ) Precip ( " mm )
12:15 am 00:15 Clear 76 24.7 64 18 66 66 SSE 17 28 29.65 1004 10 16.09344 0 0
12:35 am 00:35 Clear 76 24.5 64 18 67 67 SSE 21 33 29.68 1005 10 16.09344 0 0
12:55 am 00:55 Clear 76 24.2 65 18.1 69 69 SSE 18 30 29.68 1005 10 16.09344 0 0
1:15 am 01:15 Clear 75 24 65 18.2 70 70 SSE 18 30 29.68 1005 10 16.09344 0 0
1:35 am 01:35 Clear 75 24 65 18.2 70 70 S 18 30 29.65 1004 10 16.09344 0 0
1:55 am 01:55 Clear 75 23.7 65 18.2 71 71 S 20 31 29.65 1004 10 16.09344 0 0
2:15 am 02:15 Clear 74 23.5 65 18.2 72 72 SSE 18 30 29.65 1004 10 16.09344 0 0
2:35 am 02:35 Clear 74 23.4 65 18.1 72 72 S 17 28 29.65 1004 10 16.09344 0 0
2:55 am 02:55 Clear 73 23 65 18.1 74 74 S 16 26 29.65 1004 10 16.09344 0 0
3:15 am 03:15 Clear 73 22.7 65 18.1 75 75 S 16 26 29.65 1004 10 16.09344 0 0
3:35 am 03:35 Clear 73 22.6 65 18.1 76 76 S 16 26 29.65 1004 10 16.09344 0 0
3:55 am 03:55 Clear 73 22.5 64 18 76 76 S 10 17 29.65 1004 10 16.09344 0 0
4:15 am 04:15 Clear 72 22.4 64 18 76 76 S 12 19 29.65 1004 10 16.09344 0 0
4:35 am 04:35 Clear 72 22.2 64 18 77 77 S 12 19 29.65 1004 10 16.09344 0 0
4:55 am 04:55 Clear 72 22.2 64 18 77 77 S 12 19 29.65 1004 10 16.09344 0 0
5:15 am 05:15 Clear 72 22 64 18 78 78 S 12 19 29.62 1003 10 16.09344 0 0
5:35 am 05:35 Clear 71 21.8 64 17.8 78 78 S 10 17 29.62 1003 10 16.09344 0 0
5:55 am 05:55 Clear 71 21.8 64 17.8 78 78 S 10 17 29.65 1004 10 16.09344 0 0
6:15 am 06:15 Clear 71 21.8 64 17.8 78 78 S 13 20 29.65 1004 10 16.09344 0 0
6:35 am 06:35 Clear 71 21.6 64 17.8 79 79 S 9 15 29.62 1003 10 16.09344 0 0
6:55 am 06:55 Clear 71 21.5 64 18 81 81 S 12 19 29.62 1003 10 16.09344 0 0
7:15 am 07:15 Clear 71 21.4 64 18 81 81 S 10 17 29.62 1003 10 16.09344 0 0
7:35 am 07:35 Sunny 70 21.3 64 18 82 82 S 10 17 29.62 1003 10 16.09344 0 0
7:55 am 07:55 Sunny 71 21.5 64 18 81 81 S 10 17 29.65 1004 10 16.09344 0 0
8:15 am 08:15 Sunny 71 21.6 65 18.1 81 81 S 10 17 29.65 1004 10 16.09344 0 0
8:35 am 08:35 Sunny 72 22.3 65 18.1 77 77 S 16 26 29.65 1004 10 16.09344 0 0
8:55 am 08:55 Sunny 73 23 65 18.2 74 74 S 15 24 29.65 1004 10 16.09344 0 0
9:15 am 09:15 Sunny 74 23.6 65 18.3 72 72 SSW 17 28 29.65 1004 10 16.09344 0 0
9:35 am 09:35 Sunny 76 24.2 65 18.4 70 70 SSW 20 31 29.65 1004 10 16.09344 0 0
9:55 am 09:55 Sunny 77 24.9 65 18.6 68 68 SW 17 28 29.62 1003 10 16.09344 0 0
10:15 am 10:15 Sunny 76 24.7 65 18.6 69 69 SW 13 20 29.62 1003 10 16.09344 0 0
10:35 am 10:35 Sunny 76 24.6 66 19 71 71 SW 15 24 29.65 1004 10 16.09344 0 0
10:55 am 10:55 Partly Cloudy 76 24.6 66 18.8 70 70 SW 12 19 29.65 1004 10 16.09344 0 0
11:15 am 11:15 Sunny 77 25 65 18.6 68 68 SW 13 20 29.65 1004 10 16.09344 0 0
11:35 am 11:35 Partly Cloudy 78 25.6 66 18.7 66 66 SW 14 22 29.65 1004 10 16.09344 0 0
12:15 pm 12:15 Partly Cloudy 78 25.8 66 19 66 66 W 9 15 29.65 1004 10 16.09344 0 0
12:35 pm 12:35 Partly Cloudy 78 25.6 66 19.1 67 67 W 10 17 29.65 1004 10 16.09344 0 0
12:55 pm 12:55 Partly Cloudy 79 26 67 19.3 67 67 W 14 22 29.65 1004 10 16.09344 0 0
1:15 pm 13:15 Cloudy 77 25.1 66 18.9 69 69 WSW 12 19 29.65 1004 10 16.09344 0 0
1:35 pm 13:35 Cloudy 78 25.5 67 19.3 69 69 W 12 19 29.65 1004 10 16.09344 0 0
1:55 pm 13:55 Mostly Cloudy 79 26 66 18.7 64 64 W 9 15 29.65 1004 10 16.09344 0 0
2:15 pm 14:15 Mostly Cloudy 79 25.9 65 18.6 64 64 W 8 13 29.65 1004 10 16.09344 0 0
2:35 pm 14:35 Mostly Cloudy 79 26.1 66 18.7 64 64 WNW 6 9 29.65 1004 10 16.09344 0 0
2:55 pm 14:55 Partly Cloudy 80 26.5 65 18.4 61 61 NNW 9 15 29.62 1003 10 16.09344 0 0
3:15 pm 15:15 Mostly Cloudy 80 26.4 64 18 60 60 Calm 29.62 1003 10 16.09344 0 0
3:35 pm 15:35 Mostly Cloudy 80 26.5 64 17.7 59 59 Calm 29.62 1003 10 16.09344 0 0
3:55 pm 15:55 Cloudy 80 26.6 63 17.2 56 56 W 6 9 29.65 1004 10 16.09344 0 0
4:15 pm 16:15 Cloudy 79 26 63 17.1 58 58 WNW 5 7 29.62 1003 10 16.09344 0 0
4:35 pm 16:35 Cloudy with Light Rain 78 25.6 64 17.9 63 63 WNW 8 13 29.65 1004 10 16.09344 0 0
4:55 pm 16:55 Cloudy with Rain 76 24.6 64 17.7 66 66 WNW 6 9 29.65 1004 10 16.09344 0 0
5:15 pm 17:15 Mostly Cloudy 74 23.5 65 18.4 73 73 W 3 6 29.65 1004 10 16.09344 0 0
5:35 pm 17:35 Mostly Cloudy with Light Rain 73 23 66 18.8 77 77 WSW 5 7 29.68 1005 10 16.09344 0 0
5:55 pm 17:55 Cloudy with Light Rain 72 22.1 67 19.3 84 84 WNW 3 6 29.65 1004 10 16.09344 0.01 0.254
6:15 pm 18:15 Cloudy with Light Rain 71 21.5 66 19.1 86 86 W 5 7 29.68 1005 10 16.09344 0 0
6:35 pm 18:35 Cloudy with Light Rain 70 21.3 67 19.5 90 90 SSE 5 7 29.68 1005 10 16.09344 0.01 0.254
6:55 pm 18:55 Cloudy with Light Drizzle 69 20.6 67 19.2 92 92 SSE 6 9 29.71 1006 10 16.09344 0.01 0.254
7:15 pm 19:15 Cloudy 69 20.5 67 19.5 94 94 NW 7 11 29.74 1007 10 16.09344 0 0
7:35 pm 19:35 Mostly Cloudy 70 20.9 67 19.5 92 92 NW 5 7 29.77 1008 10 16.09344 0 0
7:55 pm 19:55 Cloudy 69 20.8 67 19.6 93 93 W 3 6 29.77 1008 10 16.09344 0 0
8:15 pm 20:15 Mostly Cloudy 69 20.8 67 19.7 93 93 SW 3 6 29.77 1008 10 16.09344 0 0
8:35 pm 20:35 Partly Cloudy 69 20.5 67 19.5 94 94 SSW 7 11 29.77 1008 10 16.09344 0 0
8:55 pm 20:55 Partly Cloudy 69 20.3 66 18.9 92 92 SSE 12 19 29.71 1006 10 16.09344 0 0
9:15 pm 21:15 Partly Cloudy 68 19.8 64 18 89 89 SSW 8 13 29.74 1007 10 16.09344 0 0
9:35 pm 21:35 Clear 67 19.3 64 17.8 91 91 NW 8 13 29.83 1010 10 16.09344 0 0
9:55 pm 21:55 Mostly Cloudy 68 20.1 66 19.1 94 94 NNW 10 17 29.83 1010 10 16.09344 0 0
10:15 pm 22:15 Cloudy 68 19.9 64 17.9 88 88 N 10 17 29.85 1011 10 16.09344 0 0
10:35 pm 22:35 Partly Cloudy 66 19 61 16.3 84 84 N 8 13 29.85 1011 10 16.09344 0 0
10:55 pm 22:55 Mostly Cloudy 65 18.6 61 16.2 86 86 NNW 7 11 29.91 1013 10 16.09344 0 0
11:15 pm 23:15 Cloudy 65 18.3 61 16.2 88 88 NNW 8 13 29.91 1013 10 16.09344 0 0
11:35 pm 23:35 Partly Cloudy 64 18 61 16 88 88 NNW 9 15 29.94 1014 10 16.09344 0 0
11:55 pm 23:55 Clear 64 17.6 59 15 85 85 NNW 12 19 29.94 1014 10 16.09344 0 0

Powered by AerisWeather